Location: *
(58.7167°N, 26.1833°E)
Time: 15:49:57
(UTC+00:00)

Mayak - Pass Details

Date: 25 August 2019
Orbit: 581 x 603 km, 97.6° (Epoch: 18 September)

Event Time Altitude Azimuth Distance (km) Brightness Sun altitude
Rises 23:00:08 0° 9° (N) 2,848 3.9 -20.1°
Reaches altitude 10° 23:02:52 10° 351° (N) 1,937 2.4 -20.1°
Maximum altitude 23:05:40 18° 309° (NW) 1,494 1.1 -20.0°
Enters shadow 23:08:23 10° 267° (W) 1,905 1.2 -19.9°
